カタログに戻る

COSMOS 970 DEB

運用中LEO
NORAD 10887·DEBRIS·🇷🇺 Russia

打ち上げ Dec 21, 1977 から Baikonur Cosmodrome

Loading…

次のパス (今後24時間)

TLE

最新Source: Space-Track

元期: Sep 14, 2026, 22:48 UTC

1 10887U 77121AJ  26257.95023408  .00000260  00000-0  27761-3 0  9999
2 10887  65.7406 241.4903 0166732 298.5184  59.9181 13.83884030450582

AllMySatでCOSMOS 970 DEBをリアルタイム追跡

Download on the App Store